Time,TemperatureF,DewpointF,PressureIn,WindDirection,WindDirectionDegrees,WindSpeedMPH,WindSpeedGustMPH,Humidity,HourlyPrecipIn,Conditions,Clouds,dailyrainin,SoftwareType,DateUTC
2013-03-18 00:03:00,45.4,42.6,30.05,NW,317,0.0,0.0,90,0.00,,---,0.00,VWS V14.01,2013-03-18 07:03:00,
2013-03-18 00:08:00,45.4,42.6,30.05,NW,317,0.0,0.0,90,0.00,,---,0.00,VWS V14.01,2013-03-18 07:08:00,
2013-03-18 00:13:00,45.2,42.5,30.05,NW,317,0.0,0.0,90,0.00,,---,0.00,VWS V14.01,2013-03-18 07:13:00,
2013-03-18 00:18:00,45.1,42.3,30.03,NW,317,0.0,0.0,90,0.00,,---,0.00,VWS V14.01,2013-03-18 07:18:00,
2013-03-18 00:23:00,44.9,42.2,30.03,NW,317,0.0,0.0,90,0.00,,---,0.00,VWS V14.01,2013-03-18 07:23:00,
2013-03-18 00:28:00,44.6,41.8,30.03,NW,317,0.0,0.0,90,0.00,,---,0.00,VWS V14.01,2013-03-18 07:28:00,
2013-03-18 00:33:00,44.6,42.1,30.04,NW,317,0.0,0.0,91,0.00,,---,0.00,VWS V14.01,2013-03-18 07:33:00,
2013-03-18 00:38:00,44.5,42.0,30.04,NW,317,0.0,0.0,91,0.00,,---,0.00,VWS V14.01,2013-03-18 07:38:00,
2013-03-18 00:43:00,44.3,41.8,30.04,NW,317,0.0,0.0,91,0.00,,---,0.00,VWS V14.01,2013-03-18 07:43:00,
2013-03-18 00:48:00,44.5,42.0,30.04,NW,317,0.0,0.0,91,0.00,,---,0.00,VWS V14.01,2013-03-18 07:48:00,
2013-03-18 00:53:00,44.5,42.3,30.04,NW,317,0.0,0.0,92,0.00,,---,0.00,VWS V14.01,2013-03-18 07:53:00,
2013-03-18 00:58:00,44.3,42.1,30.04,NW,317,0.0,0.0,92,0.00,,---,0.00,VWS V14.01,2013-03-18 07:58:00,
2013-03-18 01:03:00,44.2,42.0,30.04,NW,317,0.0,0.0,92,0.00,,---,0.00,VWS V14.01,2013-03-18 08:03:00,
2013-03-18 01:08:00,44.3,42.1,30.04,NW,317,0.0,0.0,92,0.00,,---,0.00,VWS V14.01,2013-03-18 08:08:00,
2013-03-18 01:14:00,44.3,42.1,30.04,NW,317,0.0,0.0,92,0.00,,---,0.00,VWS V14.01,2013-03-18 08:14:00,
2013-03-18 01:19:00,44.3,42.1,30.04,NW,317,0.0,0.0,92,0.00,,---,0.00,VWS V14.01,2013-03-18 08:19:00,
2013-03-18 01:24:00,44.1,41.9,30.04,NW,317,0.0,0.0,92,0.00,,---,0.00,VWS V14.01,2013-03-18 08:24:00,
2013-03-18 01:29:00,44.1,41.9,30.04,NW,317,0.0,0.0,92,0.00,,---,0.00,VWS V14.01,2013-03-18 08:29:00,
2013-03-18 01:34:00,43.9,41.7,30.04,NW,317,0.0,0.0,92,0.00,,---,0.00,VWS V14.01,2013-03-18 08:34:00,
2013-03-18 01:39:00,43.8,41.6,30.04,NW,317,0.0,0.0,92,0.00,,---,0.00,VWS V14.01,2013-03-18 08:39:00,
2013-03-18 01:44:00,43.6,41.4,30.04,NW,317,0.0,0.0,92,0.00,,---,0.00,VWS V14.01,2013-03-18 08:44:00,
2013-03-18 01:49:00,43.6,41.7,30.04,NW,317,0.0,0.0,93,0.00,,---,0.00,VWS V14.01,2013-03-18 08:49:00,
2013-03-18 01:54:00,43.5,41.6,30.04,NW,317,0.0,0.0,93,0.00,,---,0.00,VWS V14.01,2013-03-18 08:54:00,
2013-03-18 01:59:00,43.5,41.6,30.04,NW,317,0.0,0.0,93,0.00,,---,0.00,VWS V14.01,2013-03-18 08:59:00,
2013-03-18 02:04:00,43.3,41.4,30.04,NW,317,0.0,0.0,93,0.00,,---,0.00,VWS V14.01,2013-03-18 09:04:00,
2013-03-18 02:09:00,43.2,41.3,30.04,NW,317,0.0,0.0,93,0.00,,---,0.00,VWS V14.01,2013-03-18 09:09:00,
2013-03-18 02:14:00,43.1,41.2,30.04,NW,317,0.0,0.0,93,0.00,,---,0.00,VWS V14.01,2013-03-18 09:14:00,
2013-03-18 02:19:00,43.1,41.2,30.04,NW,317,0.0,0.0,93,0.00,,---,0.00,VWS V14.01,2013-03-18 09:19:00,
2013-03-18 02:24:00,42.9,41.0,30.04,NW,317,0.0,0.0,93,0.00,,---,0.00,VWS V14.01,2013-03-18 09:24:00,
2013-03-18 02:29:00,42.9,41.0,30.04,NW,317,0.0,0.0,93,0.00,,---,0.00,VWS V14.01,2013-03-18 09:29:00,
2013-03-18 02:34:00,42.9,41.0,30.05,NW,317,0.0,0.0,93,0.00,,---,0.00,VWS V14.01,2013-03-18 09:34:00,
2013-03-18 02:40:00,42.9,41.0,30.05,NW,317,0.0,0.0,93,0.00,,---,0.00,VWS V14.01,2013-03-18 09:40:00,
2013-03-18 02:45:00,42.8,40.9,30.05,NW,317,0.0,0.0,93,0.00,,---,0.00,VWS V14.01,2013-03-18 09:45:00,
2013-03-18 02:50:00,42.6,40.7,30.03,NW,317,0.0,0.0,93,0.00,,---,0.00,VWS V14.01,2013-03-18 09:50:00,
2013-03-18 02:55:00,42.5,40.6,30.03,NW,317,0.0,0.0,93,0.00,,---,0.00,VWS V14.01,2013-03-18 09:55:00,
2013-03-18 03:00:00,42.2,40.3,30.03,NW,317,0.0,0.0,93,0.00,,---,0.00,VWS V14.01,2013-03-18 10:00:00,
2013-03-18 03:05:00,41.9,40.0,30.02,NW,317,0.0,0.0,93,0.00,,---,0.00,VWS V14.01,2013-03-18 10:05:00,
2013-03-18 03:10:00,41.9,40.0,30.02,NW,317,0.0,0.0,93,0.00,,---,0.00,VWS V14.01,2013-03-18 10:10:00,
2013-03-18 03:15:00,41.9,40.0,30.02,NW,317,0.0,0.0,93,0.00,,---,0.00,VWS V14.01,2013-03-18 10:15:00,
2013-03-18 03:20:00,41.9,40.3,30.02,NW,317,0.0,0.0,94,0.00,,---,0.00,VWS V14.01,2013-03-18 10:20:00,
2013-03-18 03:25:00,42.1,40.5,30.02,NW,317,0.0,0.0,94,0.00,,---,0.00,VWS V14.01,2013-03-18 10:25:00,
2013-03-18 03:30:00,42.1,40.5,30.02,NW,317,0.0,0.0,94,0.00,,---,0.00,VWS V14.01,2013-03-18 10:30:00,
2013-03-18 03:35:00,42.3,41.0,30.02,NW,317,0.0,0.0,95,0.00,,---,0.00,VWS V14.01,2013-03-18 10:35:00,
2013-03-18 03:40:00,42.6,41.3,30.02,NW,317,0.0,0.0,95,0.00,,---,0.00,VWS V14.01,2013-03-18 10:40:00,
2013-03-18 03:45:00,42.9,41.6,30.02,NW,317,0.0,0.0,95,0.00,,---,0.00,VWS V14.01,2013-03-18 10:45:00,
2013-03-18 03:50:00,42.9,41.6,30.01,NW,317,0.0,0.0,95,0.00,,---,0.00,VWS V14.01,2013-03-18 10:50:00,
2013-03-18 03:55:00,43.1,41.8,30.01,NW,317,0.0,0.0,95,0.00,,---,0.00,VWS V14.01,2013-03-18 10:55:00,
2013-03-18 04:00:00,43.3,42.0,30.01,NW,317,0.0,0.0,95,0.00,,---,0.00,VWS V14.01,2013-03-18 11:00:00,
2013-03-18 04:05:00,43.2,41.9,30.00,NW,317,0.0,0.0,95,0.00,,---,0.00,VWS V14.01,2013-03-18 11:05:00,
2013-03-18 04:10:00,43.1,41.8,30.00,NW,317,0.0,0.0,95,0.00,,---,0.00,VWS V14.01,2013-03-18 11:10:00,
2013-03-18 04:15:00,43.1,41.8,30.00,NW,317,0.0,0.0,95,0.00,,---,0.00,VWS V14.01,2013-03-18 11:15:00,
2013-03-18 04:20:00,42.9,41.6,30.00,NW,317,0.0,0.0,95,0.00,,---,0.00,VWS V14.01,2013-03-18 11:20:00,
2013-03-18 04:26:00,43.1,41.8,30.00,NW,317,0.0,0.0,95,0.00,,---,0.00,VWS V14.01,2013-03-18 11:26:00,
2013-03-18 04:31:00,43.1,41.8,30.00,NW,317,0.0,0.0,95,0.00,,---,0.00,VWS V14.01,2013-03-18 11:31:00,
2013-03-18 04:36:00,42.6,41.0,30.01,NW,317,0.0,0.0,94,0.00,,---,0.00,VWS V14.01,2013-03-18 11:36:00,
2013-03-18 04:41:00,42.6,41.3,30.01,NW,317,0.0,0.0,95,0.00,,---,0.00,VWS V14.01,2013-03-18 11:41:00,
2013-03-18 04:46:00,42.6,41.3,30.01,NW,317,0.0,0.0,95,0.00,,---,0.00,VWS V14.01,2013-03-18 11:46:00,
2013-03-18 04:51:00,42.5,40.9,30.01,NW,317,0.0,0.0,94,0.00,,---,0.00,VWS V14.01,2013-03-18 11:51:00,
2013-03-18 04:56:00,42.3,40.7,30.01,NW,317,0.0,0.0,94,0.00,,---,0.00,VWS V14.01,2013-03-18 11:56:00,
2013-03-18 05:01:00,42.1,40.5,30.01,NW,317,0.0,0.0,94,0.00,,---,0.00,VWS V14.01,2013-03-18 12:01:00,
2013-03-18 05:07:00,41.9,40.3,30.01,NW,317,0.0,0.0,94,0.00,,---,0.00,VWS V14.01,2013-03-18 12:07:00,
2013-03-18 05:12:00,41.8,40.5,30.01,NW,317,0.0,0.0,95,0.00,,---,0.00,VWS V14.01,2013-03-18 12:12:00,
2013-03-18 05:17:00,41.8,40.5,30.02,NW,317,0.0,0.0,95,0.00,,---,0.00,VWS V14.01,2013-03-18 12:17:00,
2013-03-18 05:22:00,41.6,40.3,30.02,NW,317,0.0,0.0,95,0.00,,---,0.00,VWS V14.01,2013-03-18 12:22:00,
2013-03-18 05:27:00,41.6,40.3,30.02,NW,317,0.0,0.0,95,0.00,,---,0.00,VWS V14.01,2013-03-18 12:27:00,
2013-03-18 05:32:00,41.6,40.3,30.02,NW,317,0.0,0.0,95,0.00,,---,0.00,VWS V14.01,2013-03-18 12:32:00,
2013-03-18 05:37:00,41.5,40.2,30.02,NW,317,0.0,0.0,95,0.00,,---,0.00,VWS V14.01,2013-03-18 12:37:00,
2013-03-18 05:42:00,41.6,40.3,30.02,NW,317,0.0,0.0,95,0.00,,---,0.00,VWS V14.01,2013-03-18 12:42:00,
2013-03-18 05:47:00,41.6,40.3,30.02,NW,317,0.0,0.0,95,0.00,,---,0.00,VWS V14.01,2013-03-18 12:47:00,
2013-03-18 05:52:00,41.8,40.5,30.02,NW,317,0.0,0.0,95,0.00,,---,0.00,VWS V14.01,2013-03-18 12:52:00,
2013-03-18 05:57:00,41.8,40.5,30.02,NW,317,0.0,0.0,95,0.00,,---,0.00,VWS V14.01,2013-03-18 12:57:00,
2013-03-18 06:02:00,41.5,40.2,30.01,NW,317,0.0,0.0,95,0.00,,---,0.00,VWS V14.01,2013-03-18 13:02:00,
2013-03-18 06:07:00,41.1,39.5,30.01,NW,317,0.0,0.0,94,0.00,,---,0.00,VWS V14.01,2013-03-18 13:07:00,
2013-03-18 06:12:00,40.6,39.0,30.01,NW,317,0.0,0.0,94,0.00,,---,0.00,VWS V14.01,2013-03-18 13:12:00,
2013-03-18 06:17:00,40.2,38.6,30.01,NW,317,0.0,0.0,94,0.00,,---,0.00,VWS V14.01,2013-03-18 13:17:00,
2013-03-18 06:22:00,40.2,38.9,30.01,NW,317,0.0,0.0,95,0.00,,---,0.00,VWS V14.01,2013-03-18 13:22:00,
2013-03-18 06:27:00,40.2,38.9,30.01,NW,317,0.0,0.0,95,0.00,,---,0.00,VWS V14.01,2013-03-18 13:27:00,
2013-03-18 06:32:00,40.2,38.9,30.02,NW,317,0.0,0.0,95,0.00,,---,0.00,VWS V14.01,2013-03-18 13:32:00,
2013-03-18 06:37:00,40.2,38.9,30.02,NW,317,0.0,0.0,95,0.00,,---,0.00,VWS V14.01,2013-03-18 13:37:00,
2013-03-18 06:42:00,40.2,38.9,30.02,NW,317,0.0,0.0,95,0.00,,---,0.00,VWS V14.01,2013-03-18 13:42:00,
2013-03-18 06:48:00,40.2,38.9,30.02,NW,317,0.0,0.0,95,0.00,,---,0.00,VWS V14.01,2013-03-18 13:48:00,
2013-03-18 06:53:00,40.1,38.8,30.02,NW,317,0.0,0.0,95,0.00,,---,0.00,VWS V14.01,2013-03-18 13:53:00,
2013-03-18 06:58:00,40.1,38.8,30.02,NW,317,0.0,0.0,95,0.00,,---,0.00,VWS V14.01,2013-03-18 13:58:00,
2013-03-18 07:03:00,40.3,39.2,30.03,NW,317,0.0,0.0,96,0.00,,---,0.00,VWS V14.01,2013-03-18 14:03:00,
2013-03-18 07:08:00,40.3,39.2,30.03,NW,317,0.0,0.0,96,0.00,,---,0.00,VWS V14.01,2013-03-18 14:08:00,
2013-03-18 07:13:00,40.3,39.0,30.03,NW,317,0.0,0.0,95,0.00,,---,0.00,VWS V14.01,2013-03-18 14:13:00,
2013-03-18 07:18:00,40.5,39.5,30.05,NW,317,0.0,0.0,96,0.00,,---,0.00,VWS V14.01,2013-03-18 14:18:00,
2013-03-18 07:23:00,40.5,39.5,30.05,NW,317,0.0,0.0,96,0.00,,---,0.00,VWS V14.01,2013-03-18 14:23:00,
2013-03-18 07:28:00,40.3,39.2,30.05,NW,317,0.0,0.0,96,0.00,,---,0.00,VWS V14.01,2013-03-18 14:28:00,
2013-03-18 07:33:00,40.3,39.2,30.05,NW,317,0.0,0.0,96,0.00,,---,0.00,VWS V14.01,2013-03-18 14:33:00,
2013-03-18 07:38:00,40.3,39.2,30.05,NW,317,0.0,0.0,96,0.00,,---,0.00,VWS V14.01,2013-03-18 14:38:00,
2013-03-18 07:43:00,40.3,39.2,30.05,NW,319,0.0,0.0,96,0.00,,---,0.00,VWS V14.01,2013-03-18 14:43:00,
2013-03-18 07:48:00,40.3,39.2,30.06,NNW,329,0.0,0.0,96,0.00,,---,0.00,VWS V14.01,2013-03-18 14:48:00,
2013-03-18 07:53:00,40.5,39.5,30.06,NNW,329,0.0,0.0,96,0.00,,---,0.00,VWS V14.01,2013-03-18 14:53:00,
2013-03-18 07:58:00,40.6,39.5,30.06,NNW,329,0.0,0.0,96,0.00,,---,0.00,VWS V14.01,2013-03-18 14:58:00,
2013-03-18 08:04:00,40.8,39.8,30.06,NNW,329,0.0,0.0,96,0.00,,---,0.00,VWS V14.01,2013-03-18 15:04:00,
2013-03-18 08:09:00,40.9,39.8,30.06,NNW,329,0.0,0.0,96,0.00,,---,0.00,VWS V14.01,2013-03-18 15:09:00,
2013-03-18 08:14:00,41.1,40.0,30.06,NNW,329,0.0,0.0,96,0.00,,---,0.00,VWS V14.01,2013-03-18 15:14:00,
2013-03-18 08:19:00,41.2,40.2,30.07,NNW,329,0.0,0.0,96,0.00,,---,0.00,VWS V14.01,2013-03-18 15:19:00,
2013-03-18 08:24:00,41.5,40.5,30.07,NW,323,0.0,0.0,96,0.00,,---,0.00,VWS V14.01,2013-03-18 15:24:00,
2013-03-18 08:29:00,41.9,40.8,30.07,North,5,0.0,1.0,96,0.00,,---,0.00,VWS V14.01,2013-03-18 15:29:00,
2013-03-18 08:34:00,42.5,41.4,30.07,NW,324,0.0,0.0,96,0.00,,---,0.00,VWS V14.01,2013-03-18 15:34:00,
2013-03-18 08:39:00,43.1,42.0,30.07,WNW,292,0.0,0.0,96,0.00,,---,0.00,VWS V14.01,2013-03-18 15:39:00,
2013-03-18 08:44:00,43.8,42.7,30.07,WSW,238,0.0,1.0,96,0.01,,---,0.01,VWS V14.01,2013-03-18 15:44:00,
2013-03-18 08:49:00,44.6,43.8,30.07,WSW,240,0.0,1.0,97,0.01,,---,0.01,VWS V14.01,2013-03-18 15:49:00,
2013-03-18 08:54:00,45.4,44.3,30.07,WNW,294,0.0,1.0,96,0.01,,---,0.01,VWS V14.01,2013-03-18 15:54:00,
2013-03-18 08:59:00,46.0,44.9,30.07,WNW,294,0.0,1.0,96,0.01,,---,0.01,VWS V14.01,2013-03-18 15:59:00,
2013-03-18 09:04:00,46.7,45.6,30.07,WNW,294,0.0,0.0,96,0.01,,---,0.01,VWS V14.01,2013-03-18 16:04:00,
2013-03-18 09:09:00,47.3,45.9,30.07,WNW,294,0.0,0.0,95,0.01,,---,0.01,VWS V14.01,2013-03-18 16:09:00,
2013-03-18 09:14:00,48.0,46.6,30.07,WNW,294,0.0,0.0,95,0.01,,---,0.01,VWS V14.01,2013-03-18 16:14:00,
2013-03-18 09:19:00,48.6,47.0,30.07,WNW,294,0.0,-999.0,93,-99.99,,,0.01,weatherlink.com 1.10,2013-03-18 16:19:00,
2013-03-18 09:24:00,49.2,47.0,30.07,WNW,294,0.0,0.0,92,0.01,,---,0.01,VWS V14.01,2013-03-18 16:24:00,
2013-03-18 09:29:00,49.4,46.3,30.07,WNW,294,0.0,0.0,89,0.01,,---,0.01,VWS V14.01,2013-03-18 16:29:00,
2013-03-18 09:34:00,48.9,45.5,30.07,WNW,294,0.0,0.0,88,0.01,,---,0.01,VWS V14.01,2013-03-18 16:34:00,
2013-03-18 09:39:00,48.9,45.5,30.07,WNW,294,0.0,0.0,88,0.01,,---,0.01,VWS V14.01,2013-03-18 16:39:00,
2013-03-18 09:44:00,49.8,46.4,30.07,WNW,294,0.0,0.0,88,0.01,,---,0.01,VWS V14.01,2013-03-18 16:44:00,
2013-03-18 09:50:00,51.0,47.0,30.07,WNW,294,0.0,0.0,86,0.01,,---,0.01,VWS V14.01,2013-03-18 16:50:00,
2013-03-18 09:55:00,51.9,46.6,30.07,WNW,294,0.0,1.0,82,0.01,,---,0.01,VWS V14.01,2013-03-18 16:55:00,
2013-03-18 10:00:00,52.6,46.6,30.07,WNW,294,0.0,1.0,80,0.01,,---,0.01,VWS V14.01,2013-03-18 17:00:00,
2013-03-18 10:05:00,53.3,46.6,30.09,WNW,294,0.0,0.0,78,0.00,,---,0.01,VWS V14.01,2013-03-18 17:05:00,
2013-03-18 10:10:00,53.6,46.2,30.09,WNW,294,0.0,0.0,76,0.00,,---,0.01,VWS V14.01,2013-03-18 17:10:00,
2013-03-18 10:15:00,54.1,46.4,30.09,WNW,294,0.0,0.0,75,0.00,,---,0.01,VWS V14.01,2013-03-18 17:15:00,
2013-03-18 10:20:00,54.7,46.6,30.08,North,5,2.0,2.0,74,0.00,,---,0.01,VWS V14.01,2013-03-18 17:20:00,
2013-03-18 10:25:00,54.8,46.3,30.08,North,5,0.0,2.0,73,0.00,,---,0.01,VWS V14.01,2013-03-18 17:25:00,
2013-03-18 10:30:00,54.7,45.9,30.08,North,5,0.0,2.0,72,0.00,,---,0.01,VWS V14.01,2013-03-18 17:30:00,
2013-03-18 10:35:00,55.1,46.2,30.08,North,5,0.0,4.0,72,0.00,,---,0.01,VWS V14.01,2013-03-18 17:35:00,
2013-03-18 10:40:00,55.6,46.7,30.08,North,5,0.0,4.0,72,0.00,,---,0.01,VWS V14.01,2013-03-18 17:40:00,
2013-03-18 10:45:00,56.3,47.0,30.08,North,5,0.0,4.0,71,0.00,,---,0.01,VWS V14.01,2013-03-18 17:45:00,
2013-03-18 10:50:00,56.6,46.6,30.08,North,5,0.0,4.0,69,0.00,,---,0.01,VWS V14.01,2013-03-18 17:50:00,
2013-03-18 10:55:00,56.7,46.3,30.08,North,5,1.0,4.0,68,0.00,,---,0.01,VWS V14.01,2013-03-18 17:55:00,
2013-03-18 11:00:00,56.9,46.8,30.08,North,5,0.0,4.0,69,0.00,,---,0.01,VWS V14.01,2013-03-18 18:00:00,
2013-03-18 11:05:00,57.3,46.8,30.08,North,5,0.0,0.0,68,0.00,,---,0.01,VWS V14.01,2013-03-18 18:05:00,
2013-03-18 11:10:00,58.0,46.3,30.08,North,5,0.0,2.0,65,0.00,,---,0.01,VWS V14.01,2013-03-18 18:10:00,
2013-03-18 11:15:00,58.1,46.4,30.08,North,5,0.0,2.0,65,0.00,,---,0.01,VWS V14.01,2013-03-18 18:15:00,
2013-03-18 11:20:00,58.6,46.9,30.07,North,5,0.0,3.0,65,0.00,,---,0.01,VWS V14.01,2013-03-18 18:20:00,
2013-03-18 11:25:00,58.9,47.2,30.07,North,5,0.0,3.0,65,0.00,,---,0.01,VWS V14.01,2013-03-18 18:25:00,
2013-03-18 11:30:00,59.5,47.7,30.07,West,269,0.0,3.0,65,0.00,,---,0.01,VWS V14.01,2013-03-18 18:30:00,
2013-03-18 11:35:00,60.2,48.0,30.07,WNW,283,0.0,4.0,64,0.00,,---,0.01,VWS V14.01,2013-03-18 18:35:00,
2013-03-18 11:40:00,60.9,48.2,30.07,West,277,4.0,4.0,63,0.00,,---,0.01,VWS V14.01,2013-03-18 18:40:00,
2013-03-18 11:45:00,61.0,47.9,30.07,WNW,300,2.0,5.0,62,0.00,,---,0.01,VWS V14.01,2013-03-18 18:45:00,
2013-03-18 11:51:00,61.0,48.8,30.07,West,265,0.0,5.0,64,0.00,,---,0.01,VWS V14.01,2013-03-18 18:51:00,
2013-03-18 11:56:00,61.0,49.2,30.07,West,265,0.0,5.0,65,0.00,,---,0.01,VWS V14.01,2013-03-18 18:56:00,
2013-03-18 12:01:00,61.2,49.3,30.07,WNW,282,0.0,6.0,65,0.00,,---,0.01,VWS V14.01,2013-03-18 19:01:00,
2013-03-18 12:06:00,61.6,48.9,30.07,NNW,339,0.0,4.0,63,0.00,,---,0.01,VWS V14.01,2013-03-18 19:06:00,
2013-03-18 12:11:00,62.3,48.7,30.07,WSW,247,0.0,4.0,61,0.00,,---,0.01,VWS V14.01,2013-03-18 19:11:00,
2013-03-18 12:16:00,62.7,49.5,30.07,WNW,298,0.0,5.0,62,0.00,,---,0.01,VWS V14.01,2013-03-18 19:16:00,
2013-03-18 12:21:00,62.7,49.1,30.07,North,9,0.0,5.0,61,0.00,,---,0.01,VWS V14.01,2013-03-18 19:21:00,
2013-03-18 12:26:00,62.9,48.8,30.07,West,275,0.0,5.0,60,0.00,,---,0.01,VWS V14.01,2013-03-18 19:26:00,
2013-03-18 12:32:00,62.9,48.8,30.07,West,277,1.0,5.0,60,0.00,,---,0.01,VWS V14.01,2013-03-18 19:32:00,
2013-03-18 12:37:00,62.9,48.8,30.06,SW,223,3.0,5.0,60,0.00,,---,0.01,VWS V14.01,2013-03-18 19:37:00,
2013-03-18 12:42:00,63.2,48.7,30.06,WNW,300,0.0,5.0,59,0.00,,---,0.01,VWS V14.01,2013-03-18 19:42:00,
2013-03-18 12:47:00,63.1,47.6,30.05,NNW,340,0.0,5.0,57,0.00,,---,0.01,VWS V14.01,2013-03-18 19:47:00,
2013-03-18 12:52:00,63.1,48.6,30.05,NNW,344,0.0,5.0,59,0.00,,---,0.01,VWS V14.01,2013-03-18 19:52:00,
2013-03-18 12:57:00,63.4,48.8,30.05,SW,217,0.0,5.0,59,0.00,,---,0.01,VWS V14.01,2013-03-18 19:57:00,
2013-03-18 13:02:00,63.7,49.1,30.05,WNW,289,0.0,5.0,59,0.00,,---,0.01,VWS V14.01,2013-03-18 20:02:00,
2013-03-18 13:07:00,63.7,48.7,30.05,NW,314,0.0,0.0,58,0.00,,---,0.01,VWS V14.01,2013-03-18 20:07:00,
2013-03-18 13:12:00,63.7,49.1,30.05,West,277,0.0,1.0,59,0.00,,---,0.01,VWS V14.01,2013-03-18 20:12:00,
2013-03-18 13:17:00,63.9,49.3,30.05,WNW,284,0.0,3.0,59,0.00,,---,0.01,VWS V14.01,2013-03-18 20:17:00,
2013-03-18 13:22:00,64.3,48.8,30.05,WSW,253,0.0,5.0,57,0.00,,---,0.01,VWS V14.01,2013-03-18 20:22:00,
2013-03-18 13:27:00,64.0,48.9,30.05,SW,228,0.0,5.0,58,0.00,,---,0.01,VWS V14.01,2013-03-18 20:27:00,
2013-03-18 13:32:00,64.2,48.2,30.04,WSW,257,0.0,5.0,56,0.00,,---,0.01,VWS V14.01,2013-03-18 20:32:00,
2013-03-18 13:37:00,64.2,48.2,30.04,NNW,344,0.0,3.0,56,0.00,,---,0.01,VWS V14.01,2013-03-18 20:37:00,
2013-03-18 13:42:00,63.9,47.4,30.04,NNE,14,0.0,4.0,55,0.00,,---,0.01,VWS V14.01,2013-03-18 20:42:00,
2013-03-18 13:47:00,64.0,48.0,30.03,NNW,328,0.0,4.0,56,0.00,,---,0.01,VWS V14.01,2013-03-18 20:47:00,
2013-03-18 13:52:00,64.5,48.5,30.03,WSW,257,0.0,4.0,56,0.00,,---,0.01,VWS V14.01,2013-03-18 20:52:00,
2013-03-18 13:57:00,65.2,48.2,30.03,WSW,256,0.0,4.0,54,0.00,,---,0.01,VWS V14.01,2013-03-18 20:57:00,
2013-03-18 14:02:00,65.5,47.9,30.02,WSW,257,0.0,4.0,53,0.00,,---,0.01,VWS V14.01,2013-03-18 21:02:00,
2013-03-18 14:07:00,66.0,48.9,30.02,WSW,257,0.0,1.0,54,0.00,,---,0.01,VWS V14.01,2013-03-18 21:07:00,
2013-03-18 14:12:00,66.1,49.5,30.02,WSW,257,0.0,1.0,55,0.00,,---,0.01,VWS V14.01,2013-03-18 21:12:00,
2013-03-18 14:17:00,66.3,48.7,30.00,WSW,257,0.0,3.0,53,0.00,,---,0.01,VWS V14.01,2013-03-18 21:17:00,
2013-03-18 14:22:00,66.3,48.7,30.00,WSW,257,0.0,3.0,53,0.00,,---,0.01,VWS V14.01,2013-03-18 21:22:00,
2013-03-18 14:27:00,66.3,48.7,30.00,WSW,257,0.0,4.0,53,0.00,,---,0.01,VWS V14.01,2013-03-18 21:27:00,
2013-03-18 14:32:00,66.3,48.7,30.00,West,261,0.0,4.0,53,0.00,,---,0.01,VWS V14.01,2013-03-18 21:32:00,
2013-03-18 14:37:00,66.1,48.5,30.00,West,277,5.0,7.0,53,0.00,,---,0.01,VWS V14.01,2013-03-18 21:37:00,
2013-03-18 14:42:00,65.8,48.7,30.00,WNW,286,0.0,7.0,54,0.00,,---,0.01,VWS V14.01,2013-03-18 21:42:00,
2013-03-18 14:47:00,65.6,49.0,30.00,West,269,0.0,7.0,55,0.00,,---,0.01,VWS V14.01,2013-03-18 21:47:00,
2013-03-18 14:52:00,65.5,49.9,30.00,West,261,2.0,7.0,57,0.00,,---,0.01,VWS V14.01,2013-03-18 21:52:00,
2013-03-18 14:57:00,65.0,49.9,30.00,WSW,244,0.0,7.0,58,0.00,,---,0.01,VWS V14.01,2013-03-18 21:57:00,
2013-03-18 15:03:00,64.7,50.1,30.00,WNW,290,0.0,0.0,59,0.00,,---,0.01,VWS V14.01,2013-03-18 22:03:00,
2013-03-18 15:08:00,64.5,49.9,30.00,WNW,290,0.0,1.0,59,0.00,,---,0.01,VWS V14.01,2013-03-18 22:08:00,
2013-03-18 15:13:00,64.2,49.6,30.00,West,281,2.0,4.0,59,0.00,,---,0.01,VWS V14.01,2013-03-18 22:13:00,
2013-03-18 15:18:00,64.0,49.4,30.00,West,281,0.0,4.0,59,0.00,,---,0.01,VWS V14.01,2013-03-18 22:18:00,
2013-03-18 15:23:00,63.5,48.9,30.00,WNW,283,0.0,4.0,59,0.00,,---,0.01,VWS V14.01,2013-03-18 22:23:00,
2013-03-18 15:28:00,63.1,48.6,30.00,WNW,283,0.0,4.0,59,0.00,,---,0.01,VWS V14.01,2013-03-18 22:28:00,
2013-03-18 15:33:00,62.9,48.4,30.00,NW,309,0.0,0.0,59,0.00,,---,0.01,VWS V14.01,2013-03-18 22:33:00,
2013-03-18 15:38:00,62.3,46.9,30.00,NW,318,0.0,2.0,57,0.00,,---,0.01,VWS V14.01,2013-03-18 22:38:00,
2013-03-18 15:43:00,61.8,47.3,30.00,NW,318,0.0,2.0,59,0.00,,---,0.01,VWS V14.01,2013-03-18 22:43:00,
2013-03-18 15:48:00,61.6,47.2,30.00,NW,318,0.0,2.0,59,0.00,,---,0.01,VWS V14.01,2013-03-18 22:48:00,
2013-03-18 15:53:00,61.6,47.6,30.00,NW,318,0.0,2.0,60,0.00,,---,0.01,VWS V14.01,2013-03-18 22:53:00,
2013-03-18 15:58:00,62.3,47.8,30.00,WSW,247,0.0,4.0,59,0.00,,---,0.01,VWS V14.01,2013-03-18 22:58:00,
2013-03-18 16:03:00,62.9,47.5,30.00,WSW,247,0.0,0.0,57,0.00,,---,0.01,VWS V14.01,2013-03-18 23:03:00,
2013-03-18 16:08:00,63.7,47.2,30.00,WSW,247,0.0,0.0,55,0.00,,---,0.01,VWS V14.01,2013-03-18 23:08:00,
2013-03-18 16:13:00,64.0,47.0,30.00,WSW,247,0.0,0.0,54,0.00,,---,0.01,VWS V14.01,2013-03-18 23:13:00,
2013-03-18 16:18:00,64.2,48.2,30.00,WNW,282,5.0,5.0,56,0.00,,---,0.01,VWS V14.01,2013-03-18 23:18:00,
2013-03-18 16:23:00,64.0,48.9,30.00,SSW,204,3.0,6.0,58,0.00,,---,0.01,VWS V14.01,2013-03-18 23:23:00,
2013-03-18 16:28:00,63.4,48.8,30.00,SW,232,0.0,6.0,59,0.00,,---,0.01,VWS V14.01,2013-03-18 23:28:00,
2013-03-18 16:33:00,63.1,48.6,30.01,SW,221,0.0,1.0,59,0.00,,---,0.01,VWS V14.01,2013-03-18 23:33:00,
2013-03-18 16:38:00,62.9,48.8,30.01,SW,221,0.0,1.0,60,0.00,,---,0.01,VWS V14.01,2013-03-18 23:38:00,
2013-03-18 16:43:00,62.9,48.4,30.01,SW,221,0.0,1.0,59,0.00,,---,0.01,VWS V14.01,2013-03-18 23:43:00,
2013-03-18 16:48:00,63.2,48.7,30.01,West,267,0.0,1.0,59,0.00,,---,0.01,VWS V14.01,2013-03-18 23:48:00,
2013-03-18 16:54:00,63.4,48.8,30.01,West,267,0.0,1.0,59,0.00,,---,0.01,VWS V14.01,2013-03-18 23:54:00,
2013-03-18 16:59:00,63.4,48.8,30.01,West,267,0.0,1.0,59,0.00,,---,0.01,VWS V14.01,2013-03-18 23:59:00,
2013-03-18 17:04:00,63.1,48.6,30.00,West,281,0.0,0.0,59,0.00,,---,0.01,VWS V14.01,2013-03-19 00:04:00,
2013-03-18 17:09:00,62.6,48.1,30.00,NNW,329,0.0,4.0,59,0.00,,---,0.01,VWS V14.01,2013-03-19 00:09:00,
2013-03-18 17:14:00,62.0,48.0,30.00,NNW,329,0.0,4.0,60,0.00,,---,0.01,VWS V14.01,2013-03-19 00:14:00,
2013-03-18 17:19:00,62.0,48.0,30.00,NNW,329,0.0,4.0,60,0.00,,---,0.01,VWS V14.01,2013-03-19 00:19:00,
2013-03-18 17:24:00,62.0,48.8,30.00,NNW,329,0.0,4.0,62,0.00,,---,0.01,VWS V14.01,2013-03-19 00:24:00,
2013-03-18 17:29:00,62.0,48.4,30.00,NNW,329,0.0,4.0,61,0.00,,---,0.01,VWS V14.01,2013-03-19 00:29:00,
2013-03-18 17:34:00,61.8,48.7,30.00,NW,325,0.0,0.0,62,0.00,,---,0.01,VWS V14.01,2013-03-19 00:34:00,
2013-03-18 17:39:00,61.8,49.1,30.00,West,270,4.0,4.0,63,0.00,,---,0.01,VWS V14.01,2013-03-19 00:39:00,
2013-03-18 17:44:00,61.5,48.4,30.00,SW,234,3.0,5.0,62,0.00,,---,0.01,VWS V14.01,2013-03-19 00:44:00,
2013-03-18 17:49:00,61.2,48.5,30.00,WNW,284,0.0,5.0,63,0.00,,---,0.01,VWS V14.01,2013-03-19 00:49:00,
2013-03-18 17:54:00,61.0,47.9,30.00,West,269,0.0,5.0,62,0.00,,---,0.01,VWS V14.01,2013-03-19 00:54:00,
2013-03-18 17:59:00,61.0,48.3,30.00,West,269,0.0,5.0,63,0.00,,---,0.01,VWS V14.01,2013-03-19 00:59:00,
2013-03-18 18:04:00,61.0,48.3,30.00,West,269,0.0,0.0,63,0.00,,---,0.01,VWS V14.01,2013-03-19 01:04:00,
2013-03-18 18:09:00,61.0,48.8,30.00,West,269,0.0,0.0,64,0.00,,---,0.01,VWS V14.01,2013-03-19 01:09:00,
2013-03-18 18:14:00,60.7,48.5,30.00,West,269,0.0,0.0,64,0.00,,---,0.01,VWS V14.01,2013-03-19 01:14:00,
2013-03-18 18:19:00,60.5,48.3,30.00,West,269,0.0,0.0,64,0.00,,---,0.01,VWS V14.01,2013-03-19 01:19:00,
2013-03-18 18:24:00,60.5,49.1,30.00,West,269,0.0,1.0,66,0.00,,---,0.01,VWS V14.01,2013-03-19 01:24:00,
2013-03-18 18:29:00,60.2,48.8,30.00,SW,229,0.0,1.0,66,0.00,,---,0.01,VWS V14.01,2013-03-19 01:29:00,
2013-03-18 18:34:00,59.6,48.2,30.01,SW,231,2.0,5.0,66,0.00,,---,0.01,VWS V14.01,2013-03-19 01:34:00,
2013-03-18 18:39:00,58.7,48.2,30.01,SW,229,3.0,7.0,68,0.00,,---,0.01,VWS V14.01,2013-03-19 01:39:00,
2013-03-18 18:44:00,57.8,47.7,30.01,SW,222,6.0,8.0,69,0.00,,---,0.01,VWS V14.01,2013-03-19 01:44:00,
2013-03-18 18:49:00,56.9,46.5,30.02,SW,217,1.0,9.0,68,0.00,,---,0.01,VWS V14.01,2013-03-19 01:49:00,
2013-03-18 18:54:00,56.3,46.0,30.02,SW,228,1.0,-999.0,68,-99.99,,,0.01,weatherlink.com 1.10,2013-03-19 01:54:00,
2013-03-18 18:59:00,55.7,46.1,30.02,SSW,207,11.0,12.0,70,0.00,,---,0.01,VWS V14.01,2013-03-19 01:59:00,
2013-03-18 19:04:00,55.0,47.2,30.05,West,266,4.0,10.0,75,0.00,,---,0.01,VWS V14.01,2013-03-19 02:04:00,
2013-03-18 19:09:00,54.7,48.0,30.05,NW,307,7.0,12.0,78,0.00,,---,0.01,VWS V14.01,2013-03-19 02:09:00,
2013-03-18 19:14:00,54.1,48.1,30.05,West,261,5.0,12.0,80,0.00,,---,0.01,VWS V14.01,2013-03-19 02:14:00,
2013-03-18 19:19:00,53.5,48.2,30.07,West,271,7.0,12.0,82,0.00,,---,0.01,VWS V14.01,2013-03-19 02:19:00,
2013-03-18 19:24:00,52.9,47.9,30.07,West,270,4.0,12.0,83,0.00,,---,0.01,VWS V14.01,2013-03-19 02:24:00,
2013-03-18 19:29:00,52.5,47.8,30.07,West,267,8.0,12.0,84,0.00,,---,0.01,VWS V14.01,2013-03-19 02:29:00,
2013-03-18 19:35:00,52.2,47.8,30.08,WSW,258,3.0,5.0,85,0.00,,---,0.01,VWS V14.01,2013-03-19 02:35:00,
2013-03-18 19:40:00,52.0,47.6,30.08,SSW,211,4.0,6.0,85,0.00,,---,0.01,VWS V14.01,2013-03-19 02:40:00,
2013-03-18 19:45:00,51.9,47.5,30.08,WSW,250,3.0,8.0,85,0.00,,---,0.01,VWS V14.01,2013-03-19 02:45:00,
2013-03-18 19:50:00,51.7,47.7,30.07,WSW,246,3.0,8.0,86,0.00,,---,0.01,VWS V14.01,2013-03-19 02:50:00,
2013-03-18 19:55:00,51.6,47.6,30.07,WSW,251,0.0,8.0,86,0.00,,---,0.01,VWS V14.01,2013-03-19 02:55:00,
2013-03-18 20:00:00,51.4,47.4,30.07,WSW,251,0.0,8.0,86,0.00,,---,0.01,VWS V14.01,2013-03-19 03:00:00,
2013-03-18 20:05:00,51.4,47.4,30.07,WSW,237,0.0,3.0,86,0.00,,---,0.01,VWS V14.01,2013-03-19 03:05:00,
2013-03-18 20:10:00,51.4,47.4,30.07,WSW,252,0.0,4.0,86,0.00,,---,0.01,VWS V14.01,2013-03-19 03:10:00,
2013-03-18 20:15:00,51.4,47.4,30.07,WSW,252,0.0,4.0,86,0.00,,---,0.01,VWS V14.01,2013-03-19 03:15:00,
2013-03-18 20:20:00,51.3,47.3,30.08,SSE,165,0.0,4.0,86,0.00,,---,0.01,VWS V14.01,2013-03-19 03:20:00,
2013-03-18 20:25:00,51.3,47.3,30.08,SSW,198,0.0,5.0,86,0.00,,---,0.01,VWS V14.01,2013-03-19 03:25:00,
2013-03-18 20:30:00,51.3,47.3,30.08,SW,216,0.0,5.0,86,0.00,,---,0.01,VWS V14.01,2013-03-19 03:30:00,
2013-03-18 20:35:00,51.3,47.3,30.08,South,183,0.0,1.0,86,0.00,,---,0.01,VWS V14.01,2013-03-19 03:35:00,
2013-03-18 20:40:00,51.3,47.3,30.08,SW,230,0.0,3.0,86,0.00,,---,0.01,VWS V14.01,2013-03-19 03:40:00,
2013-03-18 20:45:00,51.3,47.3,30.08,SW,234,0.0,6.0,86,0.00,,---,0.01,VWS V14.01,2013-03-19 03:45:00,
2013-03-18 20:50:00,51.1,47.1,30.07,WSW,238,0.0,6.0,86,0.00,,---,0.01,VWS V14.01,2013-03-19 03:50:00,
2013-03-18 20:55:00,51.1,47.1,30.07,North,355,2.0,6.0,86,0.00,,---,0.01,VWS V14.01,2013-03-19 03:55:00,
2013-03-18 21:00:00,51.1,47.1,30.07,North,355,0.0,6.0,86,0.00,,---,0.01,VWS V14.01,2013-03-19 04:00:00,
2013-03-18 21:01:00,51.1,47.1,30.07,North,355,0.0,6.0,86,0.00,,---,0.01,VWS V14.01,2013-03-19 04:01:00,
2013-03-18 21:02:00,51.1,47.1,30.07,North,355,0.0,6.0,86,0.00,,---,0.01,VWS V14.01,2013-03-19 04:02:00,
2013-03-18 21:07:00,51.1,47.1,30.07,North,355,0.0,0.0,86,0.00,,---,0.01,VWS V14.01,2013-03-19 04:07:00,
2013-03-18 21:12:00,51.1,47.1,30.07,North,355,0.0,0.0,86,0.00,,---,0.01,VWS V14.01,2013-03-19 04:12:00,
2013-03-18 21:17:00,51.1,47.1,30.08,North,355,0.0,0.0,86,0.00,,---,0.01,VWS V14.01,2013-03-19 04:17:00,
2013-03-18 21:22:00,51.0,47.0,30.08,North,355,0.0,0.0,86,0.00,,---,0.01,VWS V14.01,2013-03-19 04:22:00,
2013-03-18 21:27:00,51.0,47.0,30.08,North,355,0.0,0.0,86,0.00,,---,0.01,VWS V14.01,2013-03-19 04:27:00,
2013-03-18 21:33:00,51.0,47.0,30.08,North,355,0.0,0.0,86,0.00,,---,0.01,VWS V14.01,2013-03-19 04:33:00,
2013-03-18 21:38:00,51.0,47.0,30.08,North,355,0.0,0.0,86,0.00,,---,0.01,VWS V14.01,2013-03-19 04:38:00,
2013-03-18 21:43:00,51.1,47.1,30.08,NE,56,3.0,4.0,86,0.00,,---,0.01,VWS V14.01,2013-03-19 04:43:00,
2013-03-18 21:48:00,51.0,47.0,30.08,NE,56,0.0,4.0,86,0.00,,---,0.01,VWS V14.01,2013-03-19 04:48:00,
2013-03-18 21:53:00,51.0,47.0,30.08,ENE,57,0.0,4.0,86,0.00,,---,0.01,VWS V14.01,2013-03-19 04:53:00,
2013-03-18 21:58:00,51.0,47.0,30.08,ENE,57,0.0,4.0,86,0.00,,---,0.01,VWS V14.01,2013-03-19 04:58:00,
2013-03-18 22:03:00,50.8,46.8,30.08,NNE,17,0.0,0.0,86,0.00,,---,0.01,VWS V14.01,2013-03-19 05:03:00,
2013-03-18 22:08:00,50.7,46.7,30.08,NNE,17,0.0,0.0,86,0.00,,---,0.01,VWS V14.01,2013-03-19 05:08:00,
2013-03-18 22:13:00,50.5,46.5,30.08,NNE,17,0.0,0.0,86,0.00,,---,0.01,VWS V14.01,2013-03-19 05:13:00,
2013-03-18 22:18:00,50.4,46.4,30.08,NNE,17,0.0,0.0,86,0.00,,---,0.01,VWS V14.01,2013-03-19 05:18:00,
2013-03-18 22:23:00,50.4,46.7,30.08,NNE,17,0.0,0.0,87,0.00,,---,0.01,VWS V14.01,2013-03-19 05:23:00,
2013-03-18 22:28:00,50.1,46.4,30.08,NNE,17,0.0,0.0,87,0.00,,---,0.01,VWS V14.01,2013-03-19 05:28:00,
2013-03-18 22:33:00,49.9,46.2,30.08,NNE,17,0.0,0.0,87,0.00,,---,0.01,VWS V14.01,2013-03-19 05:33:00,
2013-03-18 22:38:00,49.6,45.9,30.08,NNE,17,0.0,0.0,87,0.00,,---,0.01,VWS V14.01,2013-03-19 05:38:00,
2013-03-18 22:43:00,49.5,46.1,30.08,NNE,17,0.0,0.0,88,0.00,,---,0.01,VWS V14.01,2013-03-19 05:43:00,
2013-03-18 22:48:00,49.4,46.3,30.08,NNE,17,0.0,0.0,89,0.00,,---,0.01,VWS V14.01,2013-03-19 05:48:00,
2013-03-18 22:53:00,49.2,46.1,30.08,NNE,17,0.0,0.0,89,0.00,,---,0.01,VWS V14.01,2013-03-19 05:53:00,
2013-03-18 22:58:00,49.1,46.0,30.08,NNE,17,0.0,0.0,89,0.00,,---,0.01,VWS V14.01,2013-03-19 05:58:00,
2013-03-18 23:03:00,48.9,45.8,30.08,NNE,17,0.0,0.0,89,0.00,,---,0.01,VWS V14.01,2013-03-19 06:03:00,
2013-03-18 23:08:00,48.9,45.8,30.08,NNE,17,0.0,0.0,89,0.00,,---,0.01,VWS V14.01,2013-03-19 06:08:00,
2013-03-18 23:13:00,48.9,46.1,30.08,NNE,17,0.0,0.0,90,0.00,,---,0.01,VWS V14.01,2013-03-19 06:13:00,
2013-03-18 23:18:00,48.9,46.1,30.09,NNE,17,0.0,0.0,90,0.00,,---,0.01,VWS V14.01,2013-03-19 06:18:00,
2013-03-18 23:23:00,49.1,46.3,30.09,NNE,17,0.0,0.0,90,0.00,,---,0.01,VWS V14.01,2013-03-19 06:23:00,
2013-03-18 23:28:00,49.2,46.4,30.09,NNE,19,0.0,0.0,90,0.00,,---,0.01,VWS V14.01,2013-03-19 06:28:00,
2013-03-18 23:33:00,49.2,46.4,30.08,NNE,19,0.0,0.0,90,0.00,,---,0.01,VWS V14.01,2013-03-19 06:33:00,
2013-03-18 23:39:00,49.4,46.6,30.08,ENE,67,0.0,1.0,90,0.00,,---,0.01,VWS V14.01,2013-03-19 06:39:00,
2013-03-18 23:44:00,49.4,46.6,30.08,NE,47,4.0,4.0,90,0.00,,---,0.01,VWS V14.01,2013-03-19 06:44:00,
2013-03-18 23:49:00,49.5,46.7,30.07,NE,47,0.0,4.0,90,0.00,,---,0.01,VWS V14.01,2013-03-19 06:49:00,
2013-03-18 23:54:00,49.6,46.5,30.07,NE,47,0.0,4.0,89,0.00,,---,0.01,VWS V14.01,2013-03-19 06:54:00,
2013-03-18 23:59:00,49.5,46.4,30.07,NE,47,0.0,4.0,89,0.00,,---,0.01,VWS V14.01,2013-03-19 06:59:00,